Location: Newark
(43.0000°N, 1.6781°W)
Time: 10:35:16
(UTC+00:00)

Explorer 7 - Pass Details

Date: 19 April 2021
Orbit: 484 x 677 km, 50.3° (Epoch: 07 May)

Event Time Altitude Azimuth Distance (km) Brightness Sun altitude
Rises 23:49:19 0° 294° (WNW) 2,773 10.7 -35.3°
Enters shadow 23:50:19 - 298° (WNW) 2,396 10.4 -35.4°
Reaches altitude 10° 23:51:40 10° 304° (NW) 1,909 - -35.4°
Maximum altitude 23:55:43 35° 11° (N) 995 - -35.4°
Drops below altitude 10° 23:59:58 10° 77° (ENE) 2,018 - -35.5°
Sets 00:02:32 0° 86° (E) 2,955 - -35.5°
